• In Belarus
  • List of Countries
  • For 7 days
  • Water Temperature
  • Satellite Maps
  • Weather Map
  • Weather Widgets
  • user-avatar
    Login

    Hourly Weather Mykonos

    Today, 18 January, Thursday

    Time Temperature Precipitation Wind Pressure Humidity
    00:00 +15°C° 0 mm 15 mps 752 mmHg 77%
    01:00 +15°C° 0 mm 14 mps 751 mmHg 77%
    02:00 +16°C° 0 mm 11 mps 750 mmHg 79%
    03:00 +15°C° 0.2 mm 12 mps 750 mmHg 76%
    04:00 +15°C° 0.2 mm 12 mps 750 mmHg 73%
    05:00 +15°C° 0.2 mm 13 mps 750 mmHg 71%
    06:00 +14°C° 0.2 mm 14 mps 751 mmHg 67%
    07:00 +13°C° 0.2 mm 16 mps 751 mmHg 63%
    08:00 +13°C° 0 mm 16 mps 750 mmHg 60%
    09:00 +11°C° 0.4 mm 17 mps 751 mmHg 59%
    10:00 +10°C° 0.4 mm 18 mps 752 mmHg 58%
    11:00 +9°C° 0.4 mm 18 mps 754 mmHg 57%
    12:00 +8°C° 0 mm 19 mps 754 mmHg 57%
    13:00 +8°C° 0 mm 19 mps 755 mmHg 56%
    14:00 +10°C° 0 mm 17 mps 755 mmHg 59%
    15:00 +9°C° 0.2 mm 17 mps 756 mmHg 58%
    16:00 +9°C° 0.2 mm 18 mps 757 mmHg 57%
    17:00 +9°C° 0.2 mm 18 mps 758 mmHg 56%
    18:00 +9°C° 0.1 mm 17 mps 759 mmHg 56%
    19:00 +9°C° 0.1 mm 16 mps 760 mmHg 56%
    20:00 +9°C° 0.1 mm 15 mps 761 mmHg 55%
    21:00 +9°C° 0 mm 14 mps 761 mmHg 55%
    22:00 +9°C° 0 mm 13 mps 762 mmHg 54%
    23:00 +10°C° 0 mm 12 mps 762 mmHg 53%

    Tomorrow, 19 January, Friday

    Time Temperature Precipitation Wind Pressure Humidity
    00:00 +11°C° 0 mm 11 mps 762 mmHg 52%
    01:00 +11°C° 0 mm 10 mps 762 mmHg 52%
    02:00 +11°C° 0 mm 9 mps 763 mmHg 51%
    03:00 +11°C° 0 mm 8 mps 763 mmHg 50%
    04:00 +11°C° 0 mm 7 mps 763 mmHg 49%
    05:00 +11°C° 0 mm 7 mps 763 mmHg 47%
    06:00 +11°C° 0 mm 6 mps 763 mmHg 45%
    07:00 +12°C° 0 mm 5 mps 763 mmHg 44%
    08:00 +12°C° 0 mm 4 mps 763 mmHg 42%
    09:00 +13°C° 0 mm 4 mps 763 mmHg 42%
    10:00 +13°C° 0 mm 4 mps 763 mmHg 41%
    11:00 +13°C° 0 mm 3 mps 764 mmHg 41%
    12:00 +13°C° 0 mm 4 mps 763 mmHg 44%
    13:00 +14°C° 0 mm 4 mps 763 mmHg 48%
    14:00 +14°C° 0 mm 4 mps 763 mmHg 51%
    15:00 +14°C° 0 mm 4 mps 763 mmHg 54%
    16:00 +14°C° 0 mm 4 mps 763 mmHg 57%
    17:00 +14°C° 0 mm 4 mps 763 mmHg 59%
    18:00 +14°C° 0 mm 4 mps 763 mmHg 61%
    19:00 +14°C° 0 mm 4 mps 763 mmHg 62%
    20:00 +14°C° 0 mm 4 mps 763 mmHg 64%
    21:00 +14°C° 0 mm 4 mps 762 mmHg 66%
    22:00 +14°C° 0 mm 5 mps 762 mmHg 68%
    23:00 +14°C° 0 mm 5 mps 762 mmHg 71%

    Day after tomorrow, 20 January, Saturday

    Time Temperature Precipitation Wind Pressure Humidity
    00:00 +15°C° 0 mm 5 mps 762 mmHg 73%
    01:00 +15°C° 0 mm 6 mps 762 mmHg 75%
    02:00 +15°C° 0 mm 6 mps 762 mmHg 77%
    03:00 +15°C° 0 mm 7 mps 762 mmHg 78%
    04:00 +15°C° 0 mm 7 mps 762 mmHg 78%
    05:00 +15°C° 0 mm 8 mps 762 mmHg 79%
    06:00 +15°C° 0 mm 8 mps 762 mmHg 79%
    07:00 +15°C° 0 mm 9 mps 762 mmHg 78%
    08:00 +15°C° 0 mm 9 mps 762 mmHg 78%
    09:00 +14°C° 0 mm 10 mps 762 mmHg 77%
    10:00 +14°C° 0 mm 10 mps 762 mmHg 77%
    11:00 +14°C° 0 mm 10 mps 762 mmHg 76%
    12:00 +14°C° 0 mm 10 mps 762 mmHg 75%
    13:00 +14°C° 0 mm 10 mps 762 mmHg 75%
    14:00 +14°C° 0 mm 10 mps 761 mmHg 75%
    15:00 +15°C° 0 mm 9 mps 761 mmHg 75%
    16:00 +15°C° 0 mm 8 mps 761 mmHg 75%
    17:00 +15°C° 0 mm 7 mps 761 mmHg 75%
    18:00 +15°C° 0 mm 7 mps 761 mmHg 75%
    19:00 +15°C° 0 mm 7 mps 761 mmHg 75%
    20:00 +15°C° 0 mm 6 mps 761 mmHg 75%
    21:00 +15°C° 0 mm 6 mps 761 mmHg 75%
    22:00 +15°C° 0 mm 6 mps 761 mmHg 75%
    23:00 +15°C° 0 mm 6 mps 761 mmHg 75%

    21 January, Sunday

    Time Temperature Precipitation Wind Pressure Humidity
    00:00 +15°C° 0 mm 6 mps 761 mmHg 75%
    01:00 +15°C° 0 mm 5 mps 761 mmHg 76%
    02:00 +15°C° 0 mm 5 mps 760 mmHg 76%
    03:00 +15°C° 0 mm 5 mps 760 mmHg 75%
    04:00 +15°C° 0 mm 5 mps 760 mmHg 75%
    05:00 +15°C° 0 mm 5 mps 759 mmHg 74%
    06:00 +15°C° 0 mm 5 mps 759 mmHg 74%
    07:00 +15°C° 0 mm 5 mps 759 mmHg 73%
    08:00 +15°C° 0 mm 5 mps 759 mmHg 73%
    09:00 +15°C° 0 mm 6 mps 758 mmHg 73%
    10:00 +15°C° 0 mm 7 mps 758 mmHg 74%
    11:00 +15°C° 0 mm 7 mps 757 mmHg 74%
    12:00 +15°C° 0 mm 7 mps 757 mmHg 74%
    13:00 +15°C° 0 mm 7 mps 756 mmHg 74%
    14:00 +15°C° 0 mm 7 mps 755 mmHg 74%
    15:00 +15°C° 0.1 mm 7 mps 754 mmHg 74%
    16:00 +15°C° 0.1 mm 7 mps 754 mmHg 74%
    17:00 +15°C° 0.1 mm 6 mps 753 mmHg 74%
    18:00 +15°C° 0.2 mm 6 mps 753 mmHg 73%
    19:00 +15°C° 0.2 mm 7 mps 753 mmHg 73%
    20:00 +15°C° 0.2 mm 7 mps 752 mmHg 73%
    21:00 +15°C° 0.2 mm 7 mps 752 mmHg 74%
    22:00 +15°C° 0.2 mm 8 mps 751 mmHg 74%
    23:00 +15°C° 0.2 mm 9 mps 750 mmHg 74%

    22 January, Monday

    Time Temperature Precipitation Wind Pressure Humidity
    00:00 +13°C° 0.7 mm 9 mps 750 mmHg 75%
    01:00 +13°C° 0.7 mm 9 mps 749 mmHg 76%
    02:00 +13°C° 0.7 mm 9 mps 748 mmHg 76%
    03:00 +13°C° 2.1 mm 9 mps 748 mmHg 79%
    04:00 +12°C° 2.1 mm 9 mps 748 mmHg 81%
    05:00 +12°C° 2.1 mm 9 mps 748 mmHg 84%
    06:00 +11°C° 1.7 mm 10 mps 748 mmHg 83%
    07:00 +11°C° 1.7 mm 11 mps 749 mmHg 82%
    08:00 +10°C° 1.7 mm 12 mps 749 mmHg 82%
    09:00 +12°C° 0.4 mm 12 mps 750 mmHg 82%
    10:00 +12°C° 0.4 mm 12 mps 751 mmHg 81%
    11:00 +12°C° 0.4 mm 12 mps 751 mmHg 81%
    12:00 +12°C° 0.3 mm 14 mps 752 mmHg 81%
    13:00 +10°C° 0.3 mm 15 mps 752 mmHg 82%
    14:00 +10°C° 0.3 mm 17 mps 753 mmHg 82%
    15:00 +9°C° 0.1 mm 17 mps 753 mmHg 81%
    16:00 +9°C° 0.1 mm 17 mps 754 mmHg 80%
    17:00 +9°C° 0.1 mm 17 mps 755 mmHg 79%
    18:00 +9°C° 0.1 mm 17 mps 756 mmHg 79%
    19:00 +9°C° 0.1 mm 17 mps 757 mmHg 78%
    20:00 +9°C° 0.1 mm 17 mps 758 mmHg 77%
    21:00 +7°C° 0 mm 17 mps 758 mmHg 77%
    22:00 +7°C° 0 mm 17 mps 759 mmHg 76%
    23:00 +7°C° 0 mm 16 mps 759 mmHg 76%

    23 January, Tuesday

    Time Temperature Precipitation Wind Pressure Humidity
    00:00 +7°C° 0 mm 16 mps 760 mmHg 77%
    01:00 +7°C° 0 mm 16 mps 760 mmHg 77%
    02:00 +6°C° 0 mm 16 mps 760 mmHg 78%
    03:00 +6°C° 0 mm 15 mps 761 mmHg 77%
    04:00 +6°C° 0 mm 15 mps 761 mmHg 77%
    05:00 +6°C° 0 mm 15 mps 762 mmHg 76%
    06:00 +6°C° 0 mm 15 mps 762 mmHg 76%
    07:00 +6°C° 0 mm 15 mps 763 mmHg 75%
    08:00 +6°C° 0 mm 15 mps 763 mmHg 75%
    09:00 +6°C° 0 mm 15 mps 764 mmHg 74%
    10:00 +6°C° 0 mm 15 mps 764 mmHg 74%
    11:00 +6°C° 0 mm 15 mps 765 mmHg 73%
    12:00 +6°C° 0 mm 14 mps 765 mmHg 72%
    13:00 +6°C° 0 mm 14 mps 765 mmHg 71%
    14:00 +6°C° 0 mm 14 mps 765 mmHg 69%
    15:00 +8°C° 0 mm 14 mps 765 mmHg 68%
    16:00 +8°C° 0 mm 14 mps 765 mmHg 66%
    17:00 +8°C° 0 mm 14 mps 766 mmHg 65%
    18:00 +8°C° 0 mm 14 mps 766 mmHg 64%
    19:00 +8°C° 0 mm 13 mps 766 mmHg 64%
    20:00 +8°C° 0 mm 13 mps 766 mmHg 64%
    21:00 +8°C° 0 mm 13 mps 766 mmHg 64%
    22:00 +8°C° 0 mm 13 mps 766 mmHg 64%
    23:00 +8°C° 0 mm 12 mps 766 mmHg 64%
    Show more